Tracking 27112 objects as of 28-Mar-2023
HD Live streaming from Space Station
objects crossing your sky now

COSMOS 1823 DEB

Track COSMOS 1823 DEB now!
10-day predictions


NORAD ID: 18737
Int'l Code: 1987-020Q
Perigee: 1,485.9 km
Apogee: 1,528.9 km
Inclination: 73.6 °
Period: 116.0 minutes
Semi major axis: 7878 km
RCS: 0.232 m2 (medium)
Launch date: February 20, 1987
Source: Commonwealth of Independent States (former USSR) (CIS)
Launch site: PLESETSK MISSILE AND SPACE COMPLEX (PKMTR)

Note: This is SATELLITE DEBRIS
Your satellite tracking list
Your tracking list is empty




NASA's NSSDC Master Catalog

Two Line Element Set (TLE):
1 18737U 87020Q   23086.73466365  .00000005  00000-0  16157-3 0  9990
2 18737  73.6060 181.4096 0027274 123.5031 352.7556 12.41504529598497
Source of the keplerian elements: AFSPC